DECAYED

OBJECT F, 55253 (Decayed)

Orbit data source: Space-Track

You're viewing an Uncataloged Satellite

Recently launched and/or uncataloged satellites may have evolving metadata. Metadata may include but not limited to: Owner, Maufacturer, Bus, Motor, and Mission.

OBJECT F, 55253 was a Chinese satellite in LEO that was launched on Sun, 15 Jan 2023 UTC via a CHANG ZHENG 2D launch vehicle from the Taiyaun Space Center, China (TSC). Unknown objects in Earth's orbit typically refer to objects detected orbiting the Earth but have not yet been identified or cataloged. These objects could be anything from previously untracked satellites, spent rocket stages, debris from satellite collisions, or even natural meteoroids temporarily captured by Earth's gravity. This object's orbit decayed before it could be identified.

Not visible in the next 10 days
Identifier
55253, 2023-007F
Orbit
Decayed
Country
Flag of CNCN / PRC
Related business
None
Manufacturer
Unknown
Mission
Decayed Commercial Imaging
Bus & Motor
Unknown
Mass
Unknown
Launch date (UTC)
2023-01-15 (3 years ago)
Launch vehicle
CHANG ZHENG 2D
Launch site
Taiyaun Space Center, China (TSC)
Object type
Unknown
Shape & HBR
Box + 2 Pan, 0.3 m
Radar Cross Section
0.098 m², Medium (>0.1 m² and < 1m²)

Expand to show TLE details & history
Last TLE update: 1 year ago

TLE from 1 year ago
0 OBJECT F
1 55253U 23007F   25054.68724622  .08692571  41166-3  80887-3 0  9998
2 55253  97.2572 137.0352 0009818 275.0688  84.9490 16.38691279118294
Epoch: 2025-02-23T16:29Z
TLE epoch observation values (Epoch: 2025-02-23T16:29:38.073Z)
Latitude
-0.00006°
Longitude
95.81031°
Altitude
171.98 km
Speed
7.803 km/s
True Right ascension
09h 08m 08s
True Declination
0° 00' 00"
Sunlit
Object was in full shadow at epoch
Visualization orbit readout
Latitude
Unknown
Longitude
Unknown
Altitude
Unknown
Speed
Unknown
Apparent Right ascension
Unknown
Apparent Declination
Unknown
Sunlit
N/A
Visualization observer readout
Local Sidereal Time
23:19:38
Azimuth
Unknown
Elevation
Unknown
Doppler factor
Unknown
Orbital elements
Apogee altitude
172.514 km
Perigee altitude
159.664 km
Semi-major axis
6,544.226 km
Eccentricity
0.00098
Inclination
97.2572°
RAAN
137.0352°
Arg. of periapsis
275.0688°
True anomaly
85.06108°
Mean anomaly
84.949°
Eccentric anomaly
85.00504°
Mean motion
4.09973 °/min
Orbital period
87.81 mins
BSTAR
0.00080887
Loading maneuver chart data...
Computing Atmospheric mass density...
Loading historical data...
Loading historical data...
Loading historical data...
Loading historical data...
Loading historical data...
Loading historical data...
Loading historical data...

Documentation

Showing up to 5 results
|